DW2806 Weather Reports


Display with metric or nautical units.
time (UTC)temp
F
wind
direction
speed
MPH
gust
MPH
rain 1hr
in
rain 24hr
in
rain mn
in
humidity
%
barometer
mb
20260901170009 65 118 0.0 0.0 0.00 0.00 0.00 94 1025.7
20260901164508 65 118 0.0 0.0 0.00 0.00 0.00 94 1025.7
20260901163007 64 118 0.0 0.0 0.00 0.00 0.00 94 1025.7
20260901161511 64 118 0.0 0.0 0.00 0.00 0.00 94 1025.7
20260901160010 64 118 0.0 0.0 0.00 0.00 0.00 94 1025.7
20260901154505 64 118 0.0 0.0 0.00 0.00 0.00 94 1025.7
20260901153005 64 118 0.0 2.0 0.00 0.00 0.00 93 1025.7
20260901151503 64 118 0.0 0.0 0.00 0.00 0.00 93 1025.7
20260901150004 64 118 0.0 0.0 0.00 0.00 0.00 94 1025.7
20260901144504 63 118 0.0 0.0 0.00 0.00 0.00 93 1025.7
20260901143001 63 118 0.0 0.0 0.00 0.00 0.00 93 1025.7
20260901141559 63 118 0.0 1.0 0.00 0.00 0.00 93 1025.7
20260901140106 63 118 0.0 0.0 0.00 0.00 0.00 93 1025.7
20260901134554 63 118 0.0 0.0 0.00 0.00 0.00 92 1025.7
20260901133051 63 118 0.0 0.0 0.00 0.00 0.00 92 1025.7
20260901131551 64 118 0.0 0.0 0.00 0.00 0.00 92 1025.7
20260901130049 64 118 0.0 0.0 0.00 0.00 0.00 91 1025.7
20260901124548 64 118 0.0 0.0 0.00 0.00 0.00 91 1025.7
20260901123050 65 118 0.0 0.0 0.00 0.00 0.00 90 1025.7
20260901121600 65 118 0.0 0.0 0.00 0.00 0.00 90 1025.7
20260901120044 66 118 0.0 0.0 0.00 0.00 0.00 90 1025.7
20260901114542 67 118 0.0 0.0 0.00 0.00 0.00 91 1025.7
20260901113041 67 118 0.0 0.0 0.00 0.00 0.00 90 1025.7
20260901111541 67 118 0.0 0.0 0.00 0.00 0.00 89 1025.7
20260901110040 67 118 0.0 0.0 0.00 0.00 0.00 89 1025.7
20260901104553 67 118 0.0 0.0 0.00 0.00 0.00 89 1025.7
20260901103040 67 118 0.0 0.0 0.00 0.00 0.00 88 1025.7
20260901101537 67 118 0.0 0.0 0.00 0.00 0.00 88 1025.7
20260901100050 67 118 0.0 0.0 0.00 0.00 0.00 88 1025.7
20260901094536 67 118 0.0 0.0 0.00 0.00 0.00 88 1025.7
20260901093035 66 118 0.0 0.0 0.00 0.00 0.00 87 1025.7
20260901091534 66 118 0.0 0.0 0.00 0.00 0.00 87 1025.7
20260901090040 66 118 0.0 0.0 0.00 0.00 0.00 87 1025.7
20260901084534 66 118 0.0 0.0 0.00 0.00 0.00 86 1025.7
20260901083033 66 118 0.0 0.0 0.00 0.00 0.00 86 1025.7
20260901081533 66 118 0.0 0.0 0.00 0.00 0.00 85 1025.7
20260901080032 66 118 0.0 0.0 0.00 0.00 0.00 85 1025.7
20260901074533 66 118 0.0 0.0 0.00 0.00 0.00 84 1025.7
20260901073028 66 118 0.0 0.0 0.00 0.00 0.00 84 1025.7
20260901071529 66 118 0.0 0.0 0.00 0.00 0.00 84 1025.7
20260901070027 66 118 0.0 0.0 0.00 0.00 0.00 85 1025.7
20260901064535 65 117 0.0 0.0 0.00 0.00 0.00 85 1025.7
20260901063029 65 117 0.0 0.0 0.00 0.00 0.00 86 1025.7
20260901061525 65 117 0.0 0.0 0.00 0.00 0.00 87 1025.7
20260901060024 65 117 0.0 0.0 0.00 0.00 0.00 87 1025.7
20260901054525 65 117 0.0 0.0 0.00 0.00 0.00 88 1025.7
20260901053022 65 117 0.0 0.0 0.00 0.00 0.00 88 1025.7
20260901051522 65 117 0.0 0.0 0.00 0.00 0.00 88 1025.7
20260901050022 66 117 0.0 0.0 0.00 0.00 0.00 88 1025.7
20260901044520 66 117 0.0 0.0 0.00 0.00 0.00 89 1025.7
20260901043023 65 117 0.0 0.0 0.00 0.00 0.00 89 1025.7
20260901041518 65 117 0.0 0.0 0.00 0.00 0.00 89 1025.7
20260901040018 65 117 0.0 0.0 0.00 0.00 0.00 90 1025.7
20260901034515 65 117 0.0 0.0 0.00 0.00 0.00 90 1025.7
20260901033015 64 117 0.0 0.0 0.00 0.00 0.00 90 1025.7
20260901031514 64 117 0.0 0.0 0.00 0.00 0.00 90 1025.7
20260901030014 63 117 0.0 0.0 0.00 0.00 0.00 90 1025.7
20260901024525 63 117 0.0 0.0 0.00 0.00 0.00 89 1025.7
20260901023014 63 117 0.0 0.0 0.00 0.00 0.00 89 1025.7
20260901021516 63 117 0.0 0.0 0.00 0.00 0.00 88 1025.7
20260901020012 63 117 0.0 0.0 0.00 0.00 0.00 88 1025.7
20260901014512 64 117 0.0 0.0 0.00 0.00 0.00 87 1025.7
20260901013012 64 117 0.0 0.0 0.00 0.00 0.00 87 1025.7
20260901011512 64 117 0.0 0.0 0.00 0.00 0.00 86 1025.7
20260901010013 64 117 0.0 0.0 0.00 0.00 0.00 86 1025.7
20260901004527 64 117 0.0 0.0 0.00 0.00 0.00 85 1025.7
20260901003009 64 117 0.0 0.0 0.00 0.00 0.00 84 1025.7
20260901001522 65 117 0.0 0.0 0.00 0.00 0.00 83 1025.7
20260901000014 65 117 0.0 0.0 0.00 0.00 0.00 83 1025.7
20260831234511 66 117 0.0 0.0 0.00 0.00 0.00 82 1025.7
20260831233007 66 117 0.0 0.0 0.00 0.00 0.00 80 1025.7
20260831231507 67 117 0.0 0.0 0.00 0.00 0.00 79 1025.7
20260831230008 68 117 0.0 0.0 0.00 0.00 0.00 77 1025.7
20260831224506 68 117 0.0 0.0 0.00 0.00 0.00 75 1025.7
20260831223006 69 117 0.0 0.0 0.00 0.00 0.00 73 1025.7
20260831221509 69 116 0.0 1.0 0.00 0.00 0.00 71 1025.7
20260831220005 69 167 0.0 0.0 0.00 0.00 0.00 71 1025.7
20260831214512 69 156 0.0 5.0 0.00 0.00 0.00 72 1025.7
20260831213003 70 271 0.0 4.0 0.00 0.00 0.00 72 1025.7
20260831211503 71 125 0.0 0.0 0.00 0.00 0.00 72 1025.7
20260831210003 71 125 0.0 4.0 0.00 0.00 0.00 71 1025.7
20260831204501 72 272 0.0 4.0 0.00 0.00 0.00 69 1025.7
20260831203001 73 135 0.0 4.0 0.00 0.00 0.00 68 1025.7
20260831201503 73 141 0.0 6.0 0.00 0.00 0.00 67 1025.7
20260831200105 74 148 0.0 1.0 0.00 0.00 0.00 65 1025.7
20260831194559 74 158 0.0 1.0 0.00 0.00 0.00 67 1025.7
20260831193058 74 150 0.0 5.0 0.00 0.00 0.00 68 1025.7
20260831191556 74 294 0.0 8.0 0.00 0.00 0.00 68 1025.7
20260831190112 74 273 0.0 4.0 0.00 0.00 0.00 67 1025.7
20260831184555 74 281 0.0 0.0 0.00 0.00 0.00 69 1025.7
20260831183100 74 289 0.0 0.0 0.00 0.00 0.00 68 1025.7
20260831181553 74 142 0.0 2.0 0.00 0.00 0.00 67 1025.7
20260831180050 75 297 0.0 0.0 0.00 0.00 0.00 64 1025.7
20260831174549 76 298 0.0 6.0 0.00 0.00 0.00 64 1025.7
20260831173048 77 271 0.0 2.0 0.00 0.00 0.00 63 1025.7
20260831171547 79 232 0.0 5.0 0.00 0.00 0.00 59 1025.7